Weather History for Nantucket, MA

Change the Weather History Date:

Sunday, January 8, 2012

  Actual Average Record
Temperature  
Mean Temperature 41 °F -  
Max Temperature 46 °F 34 °F 54 °F (1958)
Min Temperature 35 °F 21 °F 0 °F (1970)
Degree Days  
Heating Degree Days 24    
Moisture  
Dew Point 28 °F    
Average Humidity 62    
Maximum Humidity 76    
Minimum Humidity 47    
Precipitation  
Precipitation 0.00 in - - ()
Sea Level Pressure  
Sea Level Pressure 30.10 in    
Wind  
Wind Speed 10 mph (WNW)    
Max Wind Speed 15 mph    
Max Gust Speed 21 mph    
Visibility 10 miles    
Events      
Averages and records for this station are not official NWS values.
T = Trace of Precipitation, MM = Missing Value Source: NWS Daily Summary

Daily Weather History Graph

Daily Weather History Graph

Search for Another Location

Airport:

Trip Planner

Search our weather history database for the weather conditions in past years. The results will help you decide how hot, cold, wet, or windy it might be!

Date:

Astronomy

Jan. 08, 2012 Rise Set
Actual Time 7:05 AM EST 4:27 PM EST
Civil Twilight 6:34 AM EST 4:58 PM EST
Nautical Twilight 6:00 AM EST 5:33 PM EST
Astronomical Twilight 5:27 AM EST 6:06 PM EST
Moon 4:07 PM EST (1/8) 6:21 AM EST (1/8)
Length of Visible Light 10h 23m
Length of Day
9h 22m
Full, 100% of the Moon is Illuminated
Jan 8
Full
Jan 9
Full
Jan 16
Last Quarter
Jan 23
New
Jan 30
First Quarter

Hourly Weather History & Observations

Time (EST) Temp. Windchill Dew Point Humidity Pressure Visibility Wind Dir Wind Speed Gust Speed Precip Events Conditions
12:53 AM 45.0 °F 39.7 °F 37.9 °F 76% 29.90 in 10.0 mi NNW 10.4 mph - N/A   Clear
1:53 AM 44.1 °F 38.6 °F 34.0 °F 68% 29.94 in 10.0 mi NW 10.4 mph - N/A   Clear
2:53 AM 42.1 °F 37.1 °F 30.9 °F 65% 29.95 in 10.0 mi WNW 8.1 mph - N/A   Clear
3:53 AM 41.0 °F 35.2 °F 30.9 °F 67% 29.97 in 10.0 mi WNW 9.2 mph - N/A   Clear
4:53 AM 37.9 °F 33.5 °F 30.0 °F 73% 30.00 in 10.0 mi West 5.8 mph - N/A   Clear
5:53 AM 39.0 °F 34.8 °F 30.0 °F 70% 30.01 in 10.0 mi West 5.8 mph - N/A   Clear
6:53 AM 37.9 °F 32.7 °F 30.0 °F 73% 30.05 in 10.0 mi West 6.9 mph - N/A   Clear
7:53 AM 39.9 °F 33.9 °F 30.9 °F 70% 30.07 in 10.0 mi WNW 9.2 mph - N/A   Clear
8:53 AM 43.0 °F 36.8 °F 30.9 °F 62% 30.11 in 10.0 mi WNW 11.5 mph - N/A   Clear
9:53 AM 44.1 °F 37.1 °F 28.9 °F 55% 30.13 in 10.0 mi WNW 15.0 mph - N/A   Clear
10:53 AM 45.0 °F 38.5 °F 28.0 °F 52% 30.12 in 10.0 mi NW 13.8 mph - N/A   Clear
11:53 AM 45.0 °F 38.9 °F 28.0 °F 52% 30.11 in 10.0 mi WNW 12.7 mph - N/A   Clear
12:53 PM 45.0 °F 40.1 °F 27.0 °F 49% 30.11 in 10.0 mi NW 9.2 mph - N/A   Clear
1:53 PM 46.0 °F 43.1 °F 27.0 °F 47% 30.11 in 10.0 mi NNW 5.8 mph - N/A   Clear
2:53 PM 44.1 °F 38.1 °F 28.0 °F 53% 30.12 in 10.0 mi West 11.5 mph - N/A   Clear
3:53 PM 42.1 °F 37.1 °F 28.0 °F 58% 30.14 in 10.0 mi WSW 8.1 mph - N/A   Clear
4:53 PM 37.9 °F 34.4 °F 28.0 °F 68% 30.16 in 10.0 mi WNW 4.6 mph - N/A   Clear
5:53 PM 37.0 °F 31.0 °F 26.1 °F 65% 30.17 in 10.0 mi WNW 8.1 mph - N/A   Clear
6:53 PM 37.4 °F 32.1 °F 26.6 °F 65% 30.20 in 10.0 mi WNW 6.9 mph - N/A   Mostly Cloudy
7:53 PM 37.9 °F 32.7 °F 27.0 °F 65% 30.21 in 10.0 mi NW 6.9 mph - N/A   Clear
8:53 PM 37.9 °F 30.0 °F 24.1 °F 57% 30.23 in 10.0 mi NW 12.7 mph - N/A   Clear
9:53 PM 36.0 °F 27.1 °F 24.1 °F 62% 30.22 in 10.0 mi NW 13.8 mph 18.4 mph N/A   Clear
10:53 PM 36.0 °F 27.1 °F 21.9 °F 57% 30.22 in 10.0 mi NW 13.8 mph 20.7 mph N/A   Clear
11:53 PM 35.1 °F 25.9 °F 21.9 °F 59% 30.23 in 10.0 mi NW 13.8 mph 18.4 mph N/A   Clear